РПИ Ош

Руководство

Evgeny Vygornitsky*

Куратор
Инструкторы РПИ
Evgeny Vygornitsky (Supervisor)
Входит в состав
Центральная Азия

Диспетчеры РПИ

Диспетчер Рейтинг Допуски *

Аэропорты РПИ

ICAO Город Название Погода
UCFO Ош Ош UCFO 250630Z 33003MPS 280V010 CAVOK 24/11 Q1013 NOSIG